Oakland, MD

6:25 AM EST on November 19, 2017 (GMT -0500)
Oakland

Weather History for K2G4 - June, 2014

Change the Weather History Date:

Sunday, June 8, 2014

  Actual Average (KMGW) Record (KMGW)
Temperature  
Mean Temperature 64 °F -  
Max Temperature 73 °F 80 °F 95 °F (1933)
Min Temperature 55 °F 57 °F 39 °F (1912)
Degree Days  
Heating Degree Days 1    
Growing Degree Days 14 (Base 50)    
Moisture  
Dew Point 58 °F    
Average Humidity 85    
Maximum Humidity 100    
Minimum Humidity 65    
Precipitation  
Precipitation 0.00 in - - ()
Sea Level Pressure  
Sea Level Pressure 29.95 in    
Wind  
Wind Speed 8 mph (SSE)    
Max Wind Speed 15 mph    
Max Gust Speed 26 mph    
Visibility 8 miles    
Events Fog    
Averages and records for this station are not official NWS values.
T = Trace of Precipitation, MM = Missing Value Source: NWS Daily Summary

Daily Weather History Graph

Daily Weather History Graph

Search for Another Location

Airport or City:

Trip Planner

Search our weather history database for the weather conditions in past years. The results will help you decide how hot, cold, wet, or windy it might be!

Date:

Astronomy

Jun. 08, 2014 Rise Set
Actual Time 5:49 AM EDT 8:43 PM EDT
Civil Twilight 5:17 AM EDT 9:15 PM EDT
Nautical Twilight 4:36 AM EDT 9:56 PM EDT
Astronomical Twilight 3:50 AM EDT 10:43 PM EDT
Moon 4:00 PM EDT (6/8) 2:40 AM EDT (6/8)
Length of Visible Light 15h 58m
Length of Day
14h 53m
Waxing Gibbous, 77% of the Moon is Illuminated
Jun 8
Waxing Gibbous
Jun 13
Full
Jun 19
Last Quarter
Jun 27
New
Jul 5
First Quarter

Hourly Weather History & Observations

Time (EDT) Temp. Dew Point Humidity Pressure Visibility Wind Dir Wind Speed Gust Speed Precip Events Conditions
12:20 AM 59.0 °F 50.0 °F 72% 30.04 in 10.0 mi SE 9.2 mph - N/A   Clear
12:40 AM 59.0 °F 50.0 °F 72% 30.04 in 10.0 mi SE 8.1 mph - N/A   Clear
1:00 AM 59.0 °F 50.0 °F 72% 30.02 in 10.0 mi SE 9.2 mph - N/A   Clear
1:20 AM 59.0 °F 50.0 °F 72% 30.03 in 10.0 mi SE 8.1 mph - N/A   Clear
1:40 AM 59.0 °F 50.0 °F 72% 30.02 in 10.0 mi SE 10.4 mph - N/A   Clear
2:00 AM 59.0 °F 50.0 °F 72% 30.02 in 10.0 mi SSE 9.2 mph - N/A   Clear
2:20 AM 59.0 °F 50.0 °F 72% 30.01 in 10.0 mi SE 9.2 mph - N/A   Clear
3:00 AM 59.0 °F 51.8 °F 77% 30.00 in 10.0 mi SSE 10.4 mph - N/A   Clear
3:20 AM 59.0 °F 51.8 °F 77% 30.00 in 10.0 mi SE 9.2 mph - N/A   Clear
3:40 AM 59.0 °F 51.8 °F 77% 29.99 in 10.0 mi SE 9.2 mph - N/A   Clear
4:00 AM 59.0 °F 53.6 °F 82% 29.99 in 10.0 mi SE 9.2 mph - N/A   Clear
4:20 AM 59.0 °F 53.6 °F 82% 29.99 in 10.0 mi SE 9.2 mph - N/A   Scattered Clouds
4:40 AM 57.2 °F 53.6 °F 88% 29.98 in 10.0 mi SE 9.2 mph - N/A   Scattered Clouds
5:00 AM 57.2 °F 55.4 °F 94% 29.98 in 10.0 mi SE 9.2 mph - N/A   Clear
5:20 AM 57.2 °F 55.4 °F 94% 29.98 in 10.0 mi SSE 9.2 mph - N/A   Clear
5:40 AM 57.2 °F 55.4 °F 94% 29.97 in 10.0 mi SE 9.2 mph - N/A   Clear
6:00 AM 55.4 °F 55.4 °F 100% 29.98 in 10.0 mi SSE 6.9 mph - N/A   Clear
6:20 AM 57.2 °F 57.2 °F 100% 29.98 in 10.0 mi SSE 8.1 mph - N/A   Clear
6:40 AM 59.0 °F 59.0 °F 100% 29.97 in 10.0 mi SSE 8.1 mph - N/A   Clear
7:00 AM 59.0 °F 59.0 °F 100% 29.97 in 10.0 mi SSE 8.1 mph - N/A   Clear
7:20 AM 60.8 °F 59.0 °F 94% 29.96 in 10.0 mi SSE 9.2 mph - N/A   Clear
7:40 AM 60.8 °F 59.0 °F 94% 29.97 in 10.0 mi SSE 8.1 mph - N/A   Clear
8:00 AM 62.6 °F 59.0 °F 88% 29.97 in 10.0 mi SSE 9.2 mph - N/A   Clear
8:20 AM 64.4 °F 59.0 °F 83% 29.97 in 10.0 mi SE 9.2 mph - N/A   Clear
8:40 AM 64.4 °F 59.0 °F 83% 29.97 in 10.0 mi SE 6.9 mph - N/A   Clear
9:00 AM 68.0 °F 59.0 °F 73% 29.97 in 10.0 mi SSE 9.2 mph - N/A   Clear
9:20 AM 68.0 °F 59.0 °F 73% 29.97 in 10.0 mi SE 9.2 mph - N/A   Clear
9:40 AM 69.8 °F 59.0 °F 68% 29.96 in 10.0 mi SE 10.4 mph - N/A   Clear
10:00 AM 69.8 °F 59.0 °F 68% 29.96 in 10.0 mi SSE 10.4 mph - N/A   Clear
10:20 AM 71.6 °F 60.8 °F 69% 29.96 in 10.0 mi SSE 10.4 mph 17.3 mph N/A   Clear
10:40 AM 71.6 °F 60.8 °F 69% 29.95 in 10.0 mi SSE 10.4 mph - N/A   Clear
11:00 AM 73.4 °F 60.8 °F 65% 29.95 in 10.0 mi SSE 8.1 mph - N/A   Clear
11:20 AM 71.6 °F 60.8 °F 69% 29.95 in 10.0 mi SSE 6.9 mph - N/A   Scattered Clouds
11:40 AM 68.0 °F 60.8 °F 78% 29.95 in 4.0 mi SW 5.8 mph - N/A   Haze
12:20 PM 64.4 °F 64.4 °F 100% 29.96 in 10.0 mi SE 5.8 mph - N/A   Scattered Clouds
12:40 PM 68.0 °F 68.0 °F 100% 29.95 in 7.0 mi ESE 10.4 mph - N/A   Mostly Cloudy
1:20 PM 62.6 °F - N/A% 29.95 in 0.8 mi South 9.2 mph - N/A   Mostly Cloudy
1:40 PM 64.4 °F - N/A% 29.96 in 5.0 mi Calm Calm - N/A   Haze
2:00 PM 64.4 °F - N/A% 29.95 in 10.0 mi SE 4.6 mph - N/A   Mostly Cloudy
2:20 PM 66.2 °F - N/A% 29.94 in 7.0 mi ESE 4.6 mph - N/A   Mostly Cloudy
2:40 PM 69.8 °F - N/A% 29.92 in 7.0 mi ESE 5.8 mph - N/A   Scattered Clouds
3:00 PM 69.8 °F 69.8 °F 100% 29.91 in 10.0 mi ESE 4.6 mph - N/A   Clear
3:20 PM 69.8 °F 69.8 °F 100% 29.90 in 10.0 mi ESE 6.9 mph - N/A   Mostly Cloudy
3:40 PM 68.0 °F 68.0 °F 100% 29.90 in 5.0 mi SE 6.9 mph - N/A   Overcast
4:00 PM 68.0 °F 68.0 °F 100% 29.89 in 5.0 mi SE 15.0 mph - N/A   Mostly Cloudy
4:20 PM 69.8 °F 69.8 °F 100% 29.88 in 10.0 mi SE 15.0 mph 20.7 mph N/A   Scattered Clouds
5:00 PM 64.4 °F 64.4 °F 100% 29.88 in 0.5 mi SSW 10.4 mph 26.5 mph N/A Fog Fog
5:20 PM 62.6 °F - N/A% 29.90 in 0.5 mi West 4.6 mph - N/A Fog Fog
5:40 PM 62.6 °F - N/A% 29.89 in 3.0 mi NW 4.6 mph - N/A   Overcast
6:00 PM 60.8 °F - N/A% 29.92 in 0.5 mi SSW 5.8 mph - N/A Fog Fog
6:40 PM 62.6 °F - N/A% 29.89 in 10.0 mi SW 5.8 mph - N/A   Scattered Clouds
7:00 PM 64.4 °F 64.4 °F 100% 29.89 in 10.0 mi SW 4.6 mph - N/A   Scattered Clouds
7:20 PM 64.4 °F - N/A% 29.89 in 10.0 mi SW 4.6 mph - N/A   Scattered Clouds
7:40 PM 64.4 °F - N/A% 29.90 in 10.0 mi West 8.1 mph - N/A   Mostly Cloudy
8:00 PM 64.4 °F - N/A% 29.91 in 10.0 mi WNW 6.9 mph - N/A   Overcast
8:20 PM 62.6 °F - N/A% 29.91 in 5.0 mi WNW 4.6 mph - N/A   Haze
8:40 PM 62.6 °F - N/A% 29.92 in 0.5 mi Calm Calm - N/A Fog Fog
9:00 PM 62.6 °F - N/A% 29.93 in 2.0 mi NW 5.8 mph 18.4 mph N/A   Overcast
9:20 PM 62.6 °F - N/A% 29.94 in 4.0 mi NW 4.6 mph - N/A   Haze
9:40 PM 60.8 °F - N/A% 29.94 in 1.8 mi NW 3.5 mph - N/A   Overcast
10:00 PM 60.8 °F - N/A% 29.95 in 4.0 mi WNW 3.5 mph - N/A   Haze
10:20 PM 60.8 °F - N/A% 29.95 in 5.0 mi West 4.6 mph - N/A   Haze
10:40 PM 60.8 °F - N/A% 29.95 in 5.0 mi West 5.8 mph - N/A   Haze
10:55 PM 60.8 °F - N/A% 29.95 in 3.0 mi Calm Calm - N/A   Overcast
11:20 PM 60.8 °F - N/A% 29.95 in 3.0 mi West 4.6 mph - N/A   Overcast
11:40 PM 60.8 °F - N/A% 29.95 in 5.0 mi West 4.6 mph - N/A   Haze